Brooklyn, Connecticut
Current Conditions -  °F | °C
As of 12:52 AM on Monday 22 Dec 2014 (Local Time) from KIJD Reporting Station
Overcast Overcast  
Wind Chill: 30°   Ceiling: 4400
Heat Index: 34°   Visibility: 10mi
Dew Point: 29°   Wind: 5mph
Humidity: 82%   Direction: 10°N
Pressure: 30.34"   Gusts: NA
Location:  41.79°N, 71.95°W
Report Text: KIJD 220552Z AUTO 01004KT 10SM OVC044 01/M02 A3034 RMK AO2 SLP276 60000 T00111017 10011 20006 58002
Loading
Personal Weather Stations






























Interactive Weather Map New forecast layout! Learn more

10-Day Weather Forecast

Advertisements
Track Severe Weather on mobile